Regional Weather Roundup
Issued by NWS Wakefield, VA

Home | Current Version | Previous Version | Text Only | Print | Product List | Glossary Off
Versions: 1 2 3 4 5 6 7 8 9 10 11 12 13 14 15 16 17 18 19 20 21 22 23 24 25 26 27 28 29 30 31 32 33 34 35 36 37 38 39 40 41 42 43 44 45 46 47 48 49 50

000
ASUS41 KAKQ 271414
RWRAKQ

REGIONAL WEATHER ROUNDUP
NATIONAL WEATHER SERVICE WAKEFIELD VA
1000 AM EDT FRI MAR 27 2015

Note: "fair" indicates few or no clouds below 12,000 feet with no
significant weather and/or obstructions to visibility. * = Denotes
station may not report precipitation (e.g., rain,snow,etc.),
thunder or fog.

VAZ042-051-052>054-056-271500-
NORTHERN VIRGINIA

CITY           SKY/WX    TMP DP  RH WIND       PRES   REMARKS
WASH NATIONAL  CLOUDY    46  38  73 NE6       29.83R
DULLES         LGT RAIN  42  34  73 NW8       29.84R
FORT BELVOIR   LGT RAIN  42  38  84 N2        29.83R
QUANTICO       LGT RAIN  43  37  79 NE7       29.85R
FREDERICKSBRG* RAIN      42  41  96 N8        29.83R
STAFFORD*      RAIN      40  32  72 NE7       29.87R
WARRENTON      LGT RAIN  43  41  94 N10       29.82R
CULPEPER*      RAIN      43  39  87 N8        29.82S
MANASSAS*      CLOUDY    43  39  87 N8        29.84
LEESBURG*      CLOUDY    43  36  75 N7        29.84R
WINCHESTER     CLOUDY    43  28  56 N3        29.81R
FRONT ROYAL*   CLOUDY    41  34  75 N7        29.80F
LURAY*         CLOUDY    43  37  81 NE6       29.79F
$$

VAZ048-049-060>072-079>083-271500-
CENTRAL AND SOUTH CENTRAL VIRGINIA

CITY           SKY/WX    TMP DP  RH WIND       PRES   REMARKS
RICHMOND       LGT RAIN  44  39  82 N16G25    29.80R
CHESTERFIELD*  CLOUDY    43  30  61 N9        29.81R
PETERSBURG*    LGT RAIN  45  43  92 N12       29.79F
HANOVER        RAIN      42  39  89 VRB6      29.82S FOG
TAPPAHANNOCK*  LGT RAIN  43  38  85 NW7       29.81F
QUINTON*       CLOUDY    43  39  87 N6        29.80R
CHARLOTTSVILLE LGT RAIN  42  40  92 E8        29.79F FOG
GORDONSVILLE*  CLOUDY    41  39  94 NE6       29.80S
ORANGE*        RAIN      43  41  93 N8        29.83S
LOUISA*        LGT RAIN  41  39  93 NE6       29.80S
BUMPASS*       CLOUDY    40  38  92 NE7       29.81S
FARMVILLE*     LGT RAIN  44  44 100 NE12      29.78S
CREWE*         CLOUDY    43  41  93 MISG      29.77F
FORT PICKETT*  CLOUDY    43  42  95 NE15      29.77F
CHASE CITY*    CLOUDY    46  46 100 N5        29.78R
CLARKSVILLE*   CLOUDY    45  43  93 N5        29.77R
SOUTH HILL*    CLOUDY    43  42  96 N5        29.81F
LAWRENCEVILLE* CLOUDY    44  42  95 NE6       29.75F
EMPORIA*       DRIZZLE   45  43  93 N10       29.78S
$$

VAZ088>098-271500-
SOUTHEAST VIRGINIA

CITY           SKY/WX    TMP DP  RH WIND       PRES   REMARKS
NORFOLK        CLOUDY    45  40  82 N18G25    29.76R
VIRGINIA BEACH CLOUDY    48  43  82 N12       29.75R
NORFOLK NAVAL  CLOUDY    49  40  71 N24G31    29.78R
WEST POINT*    CLOUDY    46  42  84 CALM      29.81R
SALUDA*        CLOUDY    42  39  87 N15G21    29.78S
NEWPORT NEWS   CLOUDY    49  39  68 NE12G21   29.77R
LANGLEY AFB    CLOUDY    46  39  78 NE13G23   29.76R
FORT EUSTIS    CLOUDY    47  40  75 NE7       29.75R
WILLIAMSBURG*  CLOUDY    48  45  87 N6        29.78S
HR EXEC AP*    CLOUDY    46  39  76 NE14G20   29.77R
FRANKLIN*      CLOUDY    46  44  92 N8        29.76F FOG
WAKEFIELD      CLOUDY    46  41  82 N9G20     29.76F
$$

VAZ020-022-025-037-045-271500-
WEST CENTRAL AND SOUTHWEST VIRGINIA

CITY           SKY/WX    TMP DP  RH WIND       PRES   REMARKS
STAUNTON*      CLOUDY    40  36  84 N8        29.82R
WAYNESBORO*    CLOUDY    37  35  92 MISG      29.79R
HOT SPRINGS VA FOG       31  31 100 NW10G18   29.73R VSB<1/4 WCI  22
LYNCHBURG      LGT RAIN  43  41  93 E3        29.82R
DANVILLE       HVY RAIN  46  43  89 N12       29.80R FOG
SOUTH BOSTON*  CLOUDY    45  43  94 CALM      29.78R
MARTINSVILLE   RAIN      44  44 100 NW9G17    29.84R
ROANOKE        RAIN      41  35  79 W7        29.85R
BLACKSBURG     RAIN      36  34  92 NW7       29.82F
DUBLIN*        MIX PCPN  38  35  91 NW8       29.82S
MARION*        CLOUDY    38  32  81 NW6G16    29.82S
HILLSVILLE*    FLURRIES  34  34  99 N8        29.77F
RICHLANDS*     CLOUDY    33  31  93 N5        29.83S FOG
WISE*          CLOUDY    34  32  93 N12       29.86R
ABINGDON*      DRIZZLE   39  36  87 N7        29.85R
$$

MDZ021>025-VAZ099-100-271500-
SOUTHERN MARYLAND AND THE DELMARVA PENINSULA

CITY           SKY/WX    TMP DP  RH WIND       PRES   REMARKS
PATUXENT RIVER LGT RAIN  41  37  86 N13       29.80F
BAY BRIDGE APT DRIZZLE   41  39  93 CALM      29.81S
LEONARDTOWN    CLOUDY    41  37  87 N7        29.81F
DOVER          CLOUDY    40  40 100 NW10      29.80R
GEORGETOWN     CLOUDY    42  38  85 N8G17     29.79S
EASTON         LGT RAIN  43  43 100 N8        29.84S
CAMBRIDGE      CLOUDY    43  37  81 N7        29.79F
SALISBURY      CLOUDY    43  39  86 N10       29.77S
OCEAN CITY     CLOUDY    43  38  82 N14G20    29.76S
WALLOPS ISLAND CLOUDY    45  39  79 N10       29.76S
ACCOMACK*      CLOUDY    45  37  76 N13       29.77R
$$

NCZ012>017-030>032-271500-
NORTH CENTRAL AND EASTERN NORTH CAROLINA

CITY           SKY/WX    TMP DP  RH WIND       PRES   REMARKS
ROANOKE RAPIDS CLOUDY    46  41  81 N13G20    29.74S
RALEIGH        LGT RAIN  47  43  86 NE7       29.76R FOG
ELIZABETH CITY LGT RAIN  47  45  93 N15       29.74S FOG
AHOSKIE*       RAIN      46  44  91 N12       29.74F
EDENTON*       CLOUDY    46  44  90 N12G20    29.74R
CURRITUCK*     DRIZZLE   47  44  90 N16G26    29.74F
KILL DEVIL HLS CLOUDY    44  43  98 N13G21    29.70S FOG
MANTEO         CLOUDY    46  44  95 N22G29    29.71F
CAPE HATTERAS  CLOUDY    50  48  93 NE12G18   29.70R
TARBORO*       CLOUDY    50  43  78 N13G21    29.74S
GOLDSBORO      CLOUDY    53  53  98 N10       29.68R
WASHINGTON     CLOUDY    52  50  93 NE15      29.70R
GREENVILLE     CLOUDY    52  48  87 N12       29.74R
NEW BERN       CLOUDY    64  61  90 SW5       29.66F
WILMINGTON     PTSUNNY   66  62  87 SW13      29.67F
$$

VAZ048-271500-
ELSEWHERE

CITY           SKY/WX    TMP DP  RH WIND       PRES   REMARKS
HARRISBURG PA  CLOUDY    42  34  73 NW9       29.80S
BALTIMORE      LGT RAIN  43  37  79 NE3       29.80S
ANNAPOLIS      LGT RAIN  42  37  82 N3        29.80F
ANDREWS AFB    LGT RAIN  41  37  87 NE6       29.81R
PHILADELPHIA   LGT RAIN  41  35  79 CALM      29.80S
HENDERSON NC   DRIZZLE   44  42  93 N9        29.77R
GREENSBORO     RAIN      44  41  89 N12G17    29.77S FOG
ROCKY MOUNT    CLOUDY    50  42  74 N16       29.73R
$$

VAZ100-271500-
MARINE

STATION/POSITION TIME  TEMP    WIND        PRES    WAVE   SWELL
                       AIR SEA DIR/SP/G            HT/PER HT/PER
                 (UTC) (F)     (DEG/KT/KT) (MB)    (FT/S) (FT/S)
BRANDYWINE LGT   1300   40 40  360/ 17/ 19 1008.5R
CAPE MAY NJ      1300   42 44  350/  7/ 13 1007.8R
LEWES DE         1300   42 43  340/ 12/ 15 1008.3R
15NM E FENWICK I 1350   40 40              1007.0F   7/10
OCEAN-CITY-INLET 1300   43 42   20/ 11/ 18 1007.6R
WACHAPREAGUE VA  1300   45 52   10/  9/ 16 1007.7R
THOMAS POINT MD  1400                        N/A
COVE POINT MD    1300   40      10/ 11/ 13 1009.3R
SOLOMONS ISLAND  1300      43                N/A
BISHOPS HEAD MD  1300   43 48  360/  8/ 13 1008.2R
PINEY POINT MD   1312           30/ 15/ 19   N/A
CAMBRIDGE MD     1300   42 45   10/ 12/ 14 1009.0R
LEWISETTA VA     1300   42 44              1009.0R
RAPPAHANNOCK LGT 1300           10/ 19/ 21 1008.2R
STINGRAY PT      1400   43 44   10/ 16/ 19   N/A     2/ 3
YORK RVR RNG VA  1300   45      20/ 22/ 26 1007.1R
YORKTOWN VA      1300   47 47   20/ 16/ 19 1007.7R
DOMINION TERM VA 1300   47      30/  5/ 12 1007.8R
KIPTOPEKE VA     1300      50   10/ 10/ 14   N/A
CHES BAY BRIDGE  1300   44 45  350/ 21/ 24 1006.8F
CAPE HENRY VA    1300   44     350/ 15/ 17 1006.0F
CHESAPEAKE LGHT  1300   44      10/ 20/ 23 1007.5R
WILLOUBY STN VA  1300   45      10/ 21/ 25 1008.0F
S CRANEY ISL VA  1300           10/ 24/ 30 1007.3F
CAPE HENRY BUOY  1328      42                N/A     4/ 9
1ST LANDING BUOY 1400   44     350/ 19/ 23 1007.3R   3/ 3
OFFSHORE WE BUOY 1311      40                N/A     5/ 9   3/ 9
64NM E OF VA BCH 1350   48 51   10/ 25/ 29 1004.4F   9/ 9   5/ 9
DUCK PIER NC     1300   43 41   10/ 18/ 20 1005.3S
44056 DUCK FRF   1311      42                N/A     4/ 9   2/11
OREGON INLET NC  1300      59  340/ 14/ 20 1005.6R
HATTERAS NC      1300   60 60  280/ 10/ 13 1004.9R
CAPE LOOKOUT NC  1400   60     190/  6/  7 1004.4F
$$



USA.gov is the U.S. government's official web portal to all federal, state and local government web resources and services.